Weather reports worldwide

Advertisment
Poughkeepsie, ny, United States of America (2074797): temperature & dewpoint: 10.01.2019 12:00:00 - 16.01.2019 12:00:00 (EST)Poughkeepsie, ny, United States of America (2074797): wind speed & gusts: 10.01.2019 12:00:00 - 16.01.2019 12:00:00 (EST)Poughkeepsie, ny, United States of America (2074797): wind direction: 10.01.2019 12:00:00 - 16.01.2019 12:00:00 (EST)Poughkeepsie, ny, United States of America (2074797): reduced air pressure: 10.01.2019 12:00:00 - 16.01.2019 12:00:00 (EST)Poughkeepsie, ny, United States of America (2074797): visibility: 10.01.2019 12:00:00 - 16.01.2019 12:00:00 (EST)
Date & Time tt [°C] td [°C] ff [km/h] ff [kn] fx [km/h] fx [kn] dd ppp [hPa] vv [km]
16.01.2019 12:00:00 2,2 -5,6 11 6 - - SSW - 16
16.01.2019 11:00:00 1,7 -5,6 16 9 - - SW - 16
16.01.2019 10:00:00 - - 16 9 - - SW - 13
16.01.2019 09:00:00 - - 11 6 - - SW - 13
16.01.2019 08:00:00 - - 9 5 - - SSW - 15
16.01.2019 07:00:00 - - 5 3 - - SSW - 16
16.01.2019 06:00:00 - - 5 3 - - - - 16
16.01.2019 05:00:00 - - 0 0 - - N - 15
16.01.2019 04:00:00 - - 0 0 - - N - 15
16.01.2019 03:00:00 - - 0 0 - - N - 16
16.01.2019 02:00:00 - - 0 0 - - N - 16
16.01.2019 01:00:00 - - 0 0 - - N - 16
16.01.2019 00:00:00 - - 0 0 - - N - 16
15.01.2019 23:00:00 - - 0 0 - - N - 16
15.01.2019 22:00:00 - - 5 3 - - SE - 16
15.01.2019 21:00:00 - - 5 3 - - ESE - 16
15.01.2019 20:00:00 -5,6 -10,0 0 0 - - N 1019,5 16
15.01.2019 19:00:00 -4,4 -9,4 0 0 - - N 1019,6 16
15.01.2019 18:00:00 -3,3 -10,0 0 0 - - N 1019,6 16
15.01.2019 17:00:00 -1,1 -10,6 0 0 - - N 1019,4 16
15.01.2019 16:00:00 0,0 -10,6 0 0 - - N 1019,6 16
15.01.2019 15:00:00 0,6 -10,6 5 3 - - - 1019,7 16
15.01.2019 14:00:00 0,0 -10,0 9 5 - - - 1019,7 16
15.01.2019 13:00:00 -1,1 -10,0 9 5 - - NW 1020,1 16
15.01.2019 12:00:00 -2,2 -10,0 5 3 - - W 1020,9 16
15.01.2019 11:00:00 -3,9 -9,4 5 3 - - WNW 1022,1 16
15.01.2019 10:00:00 -5,0 -9,4 5 3 - - - 1022,2 16
15.01.2019 09:00:00 -7,8 -10,0 0 0 - - N 1021,5 13
15.01.2019 08:00:00 -11,1 -12,8 0 0 - - N 1021,0 13
15.01.2019 07:00:00 -11,7 -13,9 0 0 - - N 1020,8 16
15.01.2019 06:00:00 -11,7 -13,9 0 0 - - N 1020,2 15
15.01.2019 05:00:00 -11,1 -13,3 0 0 - - N 1020,0 15
15.01.2019 04:00:00 -11,1 -12,8 0 0 - - N 1019,7 15
15.01.2019 03:00:00 -10,6 -12,8 0 0 - - N 1020,0 13
15.01.2019 02:00:00 -10,0 -12,2 0 0 - - N 1020,0 15
15.01.2019 01:00:00 -10,0 -12,2 0 0 - - N 1020,1 16
15.01.2019 00:00:00 -8,9 -11,1 0 0 - - N 1020,5 16
14.01.2019 23:00:00 -8,3 -11,7 0 0 - - N 1021,1 16
14.01.2019 22:00:00 -7,8 -11,1 0 0 - - N 1021,0 16
14.01.2019 21:00:00 -7,2 -11,1 0 0 - - N 1021,0 16
14.01.2019 20:00:00 -6,7 -11,1 0 0 - - N 1020,9 16
14.01.2019 19:00:00 -5,6 -11,7 0 0 - - N 1021,2 16
14.01.2019 18:00:00 -4,4 -11,7 0 0 - - N 1021,6 16
14.01.2019 17:00:00 -3,3 -12,2 5 3 - - NNW 1021,5 16
14.01.2019 16:00:00 -2,2 -12,2 8 4 - - NW 1021,8 16
14.01.2019 15:00:00 -2,2 -12,2 8 4 - - - 1022,4 16
14.01.2019 14:00:00 -2,8 -12,8 9 5 - - - 1023,0 16
14.01.2019 13:00:00 -4,4 -13,3 0 0 - - N 1024,0 16
14.01.2019 12:00:00 -5,6 -13,3 9 5 - - W 1024,8 16
14.01.2019 11:00:00 -7,2 -13,9 0 0 - - N 1026,2 16
14.01.2019 10:00:00 -8,9 -13,9 13 7 - - NNE 1026,9 16
14.01.2019 09:00:00 -11,1 -15,0 9 5 - - NE 1027,1 16
14.01.2019 08:00:00 -12,2 -15,6 8 4 - - N 1026,9 16
14.01.2019 07:00:00 -12,8 -15,6 8 4 - - N 1026,9 16
14.01.2019 06:00:00 -12,8 -15,6 8 4 - - NNE 1026,8 16
14.01.2019 05:00:00 -12,2 -15,6 5 3 - - N 1026,9 16
14.01.2019 04:00:00 -11,7 -15,6 9 5 - - N 1027,4 16
14.01.2019 03:00:00 -11,1 -15,6 9 5 - - N 1027,7 16
14.01.2019 02:00:00 -11,1 -15,6 11 6 - - N 1027,7 16
14.01.2019 01:00:00 -10,6 -15,0 8 4 - - N 1027,4 16
14.01.2019 00:00:00 -10,0 -15,0 9 5 - - NNE 1027,7 16
13.01.2019 23:00:00 -9,4 -15,0 8 4 - - NNE 1028,4 16
13.01.2019 22:00:00 -8,9 -14,4 9 5 - - N 1028,4 16
13.01.2019 21:00:00 -7,8 -14,4 11 6 - - NNE 1028,2 16
13.01.2019 20:00:00 -7,2 -14,4 11 6 - - NNE 1028,1 16
13.01.2019 19:00:00 -6,7 -14,4 16 9 - - N 1027,9 16
13.01.2019 18:00:00 -5,6 -14,4 21 11 - - N 1027,4 16
13.01.2019 17:00:00 -4,4 -14,4 13 7 - - N 1027,5 16
13.01.2019 16:00:00 -3,3 -14,4 21 11 - - NNE 1027,7 16
13.01.2019 15:00:00 -2,8 -14,4 21 11 - - N 1027,9 16
13.01.2019 14:00:00 -3,3 -15,0 8 4 - - NW 1028,7 16
13.01.2019 13:00:00 -4,4 -15,6 9 5 - - NW 1029,7 16
13.01.2019 12:00:00 -6,1 -16,1 11 6 - - N 1030,3 16
13.01.2019 11:00:00 -6,7 -15,6 13 7 - - NNE 1032,0 16
13.01.2019 10:00:00 -7,8 -15,6 9 5 - - N 1032,8 16
13.01.2019 09:00:00 -7,8 -16,1 15 8 - - N 1032,8 16
13.01.2019 08:00:00 -8,3 -16,1 13 7 - - N 1032,2 16
13.01.2019 07:00:00 -7,8 -15,6 11 6 - - NNE 1032,0 16
13.01.2019 06:00:00 -7,2 -16,1 15 8 - - NNE 1031,8 16
13.01.2019 05:00:00 -7,2 -16,1 16 9 - - N 1031,8 16
13.01.2019 04:00:00 -6,7 -15,6 11 6 - - NE 1032,5 16
13.01.2019 03:00:00 -6,1 -16,1 11 6 - - N 1032,5 16
13.01.2019 02:00:00 -6,1 -16,1 9 5 - - N 1032,1 16
13.01.2019 01:00:00 -5,6 -15,6 9 5 - - NE 1031,9 16
13.01.2019 00:00:00 -5,6 -14,4 5 3 - - NNE 1032,6 16
12.01.2019 23:00:00 -5,6 -14,4 5 3 - - NE 1033,0 16
12.01.2019 22:00:00 -5,0 -14,4 8 4 - - NNE 1033,7 16
12.01.2019 21:00:00 -4,4 -13,9 11 6 - - N 1033,2 16
12.01.2019 20:00:00 -5,0 -10,0 5 3 - - NNE 1032,8 16
12.01.2019 19:00:00 -5,6 -10,0 5 3 - - NE 1032,9 16
12.01.2019 18:00:00 -4,4 -11,1 0 0 - - N 1032,9 16
12.01.2019 17:00:00 -3,9 -12,2 0 0 - - N 1032,1 16
12.01.2019 16:00:00 -2,8 -12,8 5 3 - - NE 1032,1 16
12.01.2019 15:00:00 -2,2 -12,8 5 3 - - ENE 1032,3 16
12.01.2019 14:00:00 -2,2 -12,2 0 0 - - N 1032,3 16
12.01.2019 13:00:00 -3,3 -12,2 8 4 - - NE 1032,5 16
12.01.2019 12:00:00 -3,9 -12,2 8 4 - - WNW 1033,0 16
12.01.2019 11:00:00 -4,4 -11,7 0 0 - - N 1034,0 16
12.01.2019 10:00:00 -5,6 -11,1 0 0 - - N 1034,2 16
12.01.2019 09:00:00 -6,7 -11,7 0 0 - - N 1033,7 16
12.01.2019 08:00:00 -7,2 -12,2 0 0 - - N 1032,8 16
12.01.2019 07:00:00 -7,8 -12,2 0 0 - - N 1032,4 16
12.01.2019 06:00:00 -8,3 -13,3 0 0 - - N 1032,0 16
12.01.2019 05:00:00 -9,4 -13,9 0 0 - - N 1031,7 16
12.01.2019 04:00:00 -10,6 -13,9 0 0 - - N 1031,6 16
12.01.2019 03:00:00 -11,1 -14,4 0 0 - - N 1031,6 16
12.01.2019 02:00:00 -10,6 -15,0 0 0 - - N 1031,2 16
12.01.2019 01:00:00 -10,6 -15,0 5 3 - - NNE 1030,4 16
12.01.2019 00:00:00 -9,4 -16,7 5 3 - - E 1029,7 16
11.01.2019 23:00:00 -8,9 -17,2 0 0 - - N 1029,7 16
11.01.2019 22:00:00 -8,3 -17,2 9 5 - - E 1029,4 16
11.01.2019 21:00:00 -7,8 -17,2 5 3 - - NE 1028,8 16
11.01.2019 20:00:00 -7,2 -17,2 15 8 - - NNE 1027,9 16
11.01.2019 19:00:00 -6,7 -16,7 11 6 - - NNE 1027,2 16
11.01.2019 18:00:00 -4,4 -17,8 9 5 - - NNW 1026,3 16
11.01.2019 17:00:00 -3,9 -17,8 21 11 - - NW 1025,5 16
11.01.2019 16:00:00 -2,2 -19,4 21 11 - - NNW 1024,4 16
11.01.2019 15:00:00 -1,7 -17,8 26 14 - - NNW 1023,8 16
11.01.2019 14:00:00 -2,2 -17,8 18 10 - - NW 1023,0 16
11.01.2019 13:00:00 -2,2 -16,1 16 9 - - NW 1022,4 16
11.01.2019 12:00:00 -3,3 -15,6 24 13 - - WNW 1022,6 16
11.01.2019 11:00:00 -4,4 -15,6 22 12 - - WNW 1023,1 16
11.01.2019 10:00:00 -5,6 -16,1 15 8 - - WNW 1023,1 16
11.01.2019 09:00:00 -6,1 -15,6 18 10 - - W 1022,1 16
11.01.2019 08:00:00 -6,7 -15,6 13 7 - - WNW 1021,3 16
11.01.2019 07:00:00 -6,7 -15,6 21 11 - - W 1020,5 16
11.01.2019 06:00:00 -6,7 -14,4 16 9 - - WNW 1019,6 16
11.01.2019 05:00:00 -6,1 -13,9 13 7 - - NW 1018,6 16
11.01.2019 04:00:00 -5,6 -13,9 24 13 - - W 1017,6 16
11.01.2019 03:00:00 -5,0 -12,8 18 10 - - W 1016,9 16
11.01.2019 02:00:00 -5,0 -13,3 13 7 - - WNW 1016,2 16
11.01.2019 01:00:00 -4,4 -13,3 21 11 - - WNW 1015,2 16
11.01.2019 00:00:00 -3,9 -12,8 26 14 - - WNW 1014,5 16
10.01.2019 23:00:00 -3,3 -11,7 28 15 - - WNW 1014,1 16
10.01.2019 22:00:00 -2,2 -10,0 24 13 - - WNW 1013,5 16
10.01.2019 21:00:00 -1,7 -9,4 16 9 - - NW 1012,7 16
10.01.2019 20:00:00 -1,7 -8,9 9 5 - - WNW 1011,8 16
10.01.2019 19:00:00 -1,7 -9,4 15 8 - - NW 1011,2 16
10.01.2019 18:00:00 -1,7 -10,0 24 13 55 30 NW 1010,5 16
10.01.2019 17:00:00 -1,1 -10,0 16 9 - - NW 1009,3 16
10.01.2019 16:00:00 -0,6 -10,0 29 16 57 31 NW 1008,2 16
10.01.2019 15:00:00 -0,6 -10,0 28 15 52 28 NW 1007,1 16
10.01.2019 14:00:00 -0,6 -11,1 29 16 52 28 NNW 1006,1 16
10.01.2019 13:00:00 -0,6 -11,1 28 15 - - NW 1005,3 16
10.01.2019 12:00:00 -0,6 -11,1 29 16 - - NW 1005,0 16

tt = temperature
td = dewpoint
ff = wind speed
fx = gusts
dd = wind direction
ppp = reduced air pressure
vv = visibility

Next stations